Theta_e
318 318 316 315 318 320 320 321 325 327 328 329 329 329 329 327 323 318 316 316 316 317 317 316 320 325 325 326 325 325 323 322 324 323 323 323 323 323 324 324 323 324 323 324 324 324 320 314 318 321 321 321 315 314 316 318 321 322 325 326 327 327 326 325 323 319 319 321 319 315 316 323 323 315 313 316 326 333 331 337 337 331 330 330 329 327 330 335
318 319 318 316 315 318 320 320 323 326 327 328 329 329 329 328 325 321 317 316 317 320 322 320 322 326 326 325 325 324 323 322 324 323 323 323 323 324 324 323 323 323 323 323 323 323 321 315 317 319 323 329 322 314 318 316 317 327 327 325 333 332 327 324 322 318 316 317 317 317 317 318 321 317 315 318 326 331 329 331 336 338 334 330 329 330 333 334
318 319 319 317 315 315 319 320 321 323 325 328 328 328 329 329 327 324 319 316 317 319 322 324 324 325 324 323 323 323 322 322 324 323 322 322 323 324 323 324 324 323 322 323 323 322 320 314 314 315 317 326 324 319 324 319 316 326 323 326 337 330 323 324 321 317 316 316 316 317 317 316 317 316 315 321 328 330 329 328 333 340 340 335 331 330 332 334
317 318 318 318 317 315 316 319 320 320 321 325 327 328 328 329 328 326 322 318 316 317 318 320 321 322 321 321 323 323 323 323 324 323 321 321 322 323 323 324 323 323 322 323 325 322 317 312 312 315 316 319 318 317 324 323 318 317 317 332 336 320 317 322 319 318 317 315 315 318 317 315 315 314 316 322 328 328 327 326 328 337 344 338 331 330 332 333
316 317 317 317 318 316 315 317 319 320 319 320 324 327 328 328 328 328 326 322 319 317 317 318 318 319 318 319 323 323 323 326 326 322 322 322 322 323 322 322 323 323 322 323 324 322 317 312 312 317 317 317 316 314 318 320 317 314 318 332 331 316 313 316 317 315 315 314 315 318 317 315 315 313 318 324 324 323 323 323 325 332 340 337 331 330 331 332
315 315 316 316 317 317 316 315 317 321 319 318 321 326 328 328 328 328 327 326 325 322 320 320 319 319 318 319 323 323 323 327 324 320 322 321 322 323 322 322 323 322 322 323 321 319 317 313 314 317 315 315 315 314 316 315 314 317 322 326 323 315 313 314 315 313 314 316 317 319 316 315 315 314 317 321 320 318 316 316 323 329 331 332 330 330 332 332
314 314 315 316 316 317 317 315 316 320 321 318 319 323 327 328 328 328 327 327 327 326 324 324 324 322 321 321 322 323 324 324 320 320 321 321 322 322 322 322 322 323 322 321 319 317 317 315 315 317 315 316 316 315 316 314 313 316 322 326 321 314 313 314 314 313 315 317 319 318 314 315 317 316 315 317 320 317 314 313 319 326 327 329 330 330 331 331
313 313 314 314 315 316 316 317 316 318 321 319 318 320 324 328 328 328 328 327 327 327 327 326 326 324 323 322 322 324 324 322 320 321 320 321 323 322 323 323 322 323 322 320 318 316 317 317 315 315 315 316 315 316 315 313 313 316 320 322 317 313 314 315 315 315 315 316 315 313 313 316 316 314 314 317 319 315 318 321 325 327 328 329 331 331 331 330
311 311 312 312 313 314 315 316 316 317 319 320 320 318 321 327 328 328 328 327 327 327 327 326 326 324 323 322 323 325 325 322 320 322 321 321 322 322 323 322 322 322 321 321 318 315 316 317 315 314 316 315 314 316 316 313 314 317 321 321 316 315 314 313 314 314 315 314 312 313 314 314 312 311 315 317 317 320 330 335 333 332 332 332 331 331 330 330
310 310 310 310 311 313 313 315 316 316 316 319 320 318 319 324 328 328 327 327 327 328 327 326 326 323 323 322 324 327 324 321 322 322 322 321 322 323 323 322 322 322 321 320 317 315 317 316 313 313 315 315 314 316 317 315 314 316 322 323 318 316 314 312 314 314 315 313 312 314 314 313 310 312 317 316 316 323 340 343 332 332 335 332 331 331 329 329
310 310 310 309 310 311 312 313 314 315 315 316 319 319 318 322 327 328 327 327 327 327 327 326 325 323 322 323 325 326 322 321 323 322 322 322 321 322 322 322 322 322 322 319 317 315 316 314 310 312 314 313 314 314 314 316 316 314 317 319 316 316 315 313 314 314 314 313 313 313 313 314 311 313 317 314 314 319 337 346 334 333 334 330 331 331 328 328
310 310 310 310 309 309 310 312 312 314 314 314 316 318 318 319 325 328 327 327 326 327 327 326 325 323 323 323 325 324 320 322 323 322 323 322 322 322 322 322 321 322 322 319 316 314 315 313 310 313 315 313 313 313 314 313 313 314 314 315 315 316 315 315 314 314 313 312 314 313 313 315 313 316 315 313 318 322 334 347 337 333 332 330 331 330 328 328
309 309 310 310 310 309 310 310 311 313 314 314 314 317 319 317 321 327 327 327 327 327 327 327 325 323 324 325 324 322 320 322 323 322 323 322 322 322 321 322 322 322 323 320 318 315 314 313 311 314 313 312 314 313 313 311 311 315 315 314 316 315 315 314 312 313 313 313 314 313 314 319 317 316 313 316 325 329 334 344 338 332 331 330 330 330 330 327
308 308 308 309 310 309 310 310 310 312 314 315 314 316 319 317 319 325 327 326 327 327 327 327 325 323 324 325 323 322 321 320 323 323 323 323 323 322 322 322 322 321 322 321 318 315 313 312 311 312 311 312 313 311 312 314 314 316 314 313 315 316 318 318 314 314 313 313 313 312 314 320 318 316 313 316 325 327 329 339 337 331 330 329 330 330 330 328
308 308 307 308 309 309 309 310 311 312 313 315 315 315 319 319 318 323 327 327 326 327 327 326 325 323 325 325 322 322 322 322 324 324 323 324 323 323 323 323 323 321 321 319 316 313 312 311 311 312 312 311 311 312 314 315 316 316 315 317 316 315 320 321 317 316 314 312 312 311 315 318 316 316 312 311 318 323 321 327 331 331 330 329 329 329 330 329
308 308 307 307 309 309 308 309 310 312 312 314 315 315 318 320 318 319 325 327 326 327 326 325 323 323 326 326 322 322 323 323 324 324 324 324 324 325 323 322 320 318 319 316 313 312 311 311 312 313 312 310 311 315 316 314 315 316 317 319 319 316 317 317 315 315 315 313 312 312 315 319 315 313 310 308 315 322 320 321 324 328 329 328 328 328 329 329
308 307 307 307 308 309 309 308 309 310 312 313 314 315 317 321 319 317 322 326 327 326 325 324 322 323 325 321 321 323 322 323 323 325 325 324 325 324 323 320 315 314 316 314 312 311 311 312 312 313 312 311 313 315 317 316 316 316 316 318 319 316 315 314 314 315 314 312 313 313 313 318 318 312 311 311 313 319 322 321 319 321 324 325 326 327 328 328
307 307 307 306 307 309 310 308 308 309 311 312 313 314 316 321 320 317 321 326 327 325 325 323 322 326 326 319 321 323 321 322 324 324 325 324 324 324 324 319 313 314 316 316 316 314 313 314 313 313 314 312 312 314 318 318 317 316 316 316 316 314 314 314 314 313 312 312 313 314 313 315 317 313 313 312 312 318 321 317 315 316 320 322 322 323 325 326
308 309 308 307 307 309 310 310 308 308 310 312 312 313 316 320 320 318 320 325 327 326 326 324 324 329 329 321 320 321 320 322 325 324 323 324 324 323 322 317 315 317 319 320 319 315 314 314 313 314 315 313 311 313 318 318 317 316 315 314 314 314 314 314 315 313 311 312 313 314 313 314 315 314 313 312 312 316 317 314 313 313 313 316 318 319 320 323
307 308 307 307 307 308 310 310 309 309 310 313 314 315 318 320 322 322 320 322 326 328 327 325 325 327 326 321 319 320 321 322 323 322 322 324 323 322 320 318 320 321 321 321 319 315 314 314 314 315 314 313 311 312 316 317 316 315 314 313 314 314 314 313 315 314 311 312 314 314 313 313 315 314 313 312 311 313 315 315 314 313 310 310 312 314 316 318
306 307 307 307 306 307 309 310 310 310 310 313 315 316 318 320 322 322 322 323 323 325 326 324 324 323 321 319 318 319 320 319 319 319 322 323 322 322 320 321 325 324 322 320 316 312 314 317 316 314 315 314 313 312 313 314 313 314 314 314 313 314 314 313 313 313 311 312 315 315 313 313 314 313 313 311 310 311 313 314 315 315 311 308 309 311 312 312
306 306 306 307 307 307 308 309 310 310 311 314 315 315 316 318 320 320 322 325 324 323 323 323 324 320 317 318 318 319 320 319 319 319 321 321 321 323 321 322 328 323 318 319 319 316 315 317 316 314 317 317 314 313 312 313 312 313 314 315 315 314 314 313 312 313 311 311 317 316 313 314 313 312 311 311 311 311 311 311 313 314 312 310 309 309 310 309
305 304 305 306 307 307 307 308 310 311 313 314 315 315 315 316 318 318 320 325 326 322 320 324 324 318 317 318 318 320 320 320 322 320 319 320 322 321 320 325 327 319 315 319 322 321 317 316 315 314 317 317 314 311 311 313 312 313 314 315 316 314 313 313 312 312 312 311 314 314 313 314 313 312 312 311 311 311 311 311 311 312 312 313 311 310 309 309
305 303 304 305 306 306 306 307 309 311 313 314 315 315 314 315 317 318 319 323 325 320 318 324 321 316 316 317 318 321 321 320 321 320 319 321 322 320 321 325 323 318 316 317 319 320 318 315 314 314 314 316 314 311 311 312 312 314 314 314 316 316 314 313 312 312 313 312 311 312 314 314 314 314 313 312 310 309 310 310 310 311 311 311 312 311 311 311
303 303 303 303 304 305 306 308 309 311 312 313 314 315 314 316 317 318 319 322 324 320 319 322 318 315 316 316 319 320 320 319 319 319 319 320 320 319 321 322 321 321 318 315 316 317 317 314 312 312 312 316 315 312 313 313 313 314 314 313 316 318 315 314 315 313 313 315 313 314 314 317 323 320 314 313 312 310 311 311 311 310 310 309 310 311 311 311
303 303 303 303 304 305 307 309 309 310 312 312 313 314 314 317 317 317 319 322 322 321 321 322 319 318 316 317 318 318 322 321 316 317 319 318 318 319 321 319 319 322 317 313 314 316 316 312 311 312 313 316 318 315 314 314 313 314 314 313 313 315 314 314 316 314 316 319 315 312 312 318 325 321 315 316 314 313 312 311 311 310 308 309 309 309 309 310
303 303 303 303 304 306 308 310 310 310 312 312 312 313 315 317 317 316 319 324 323 321 321 321 320 320 318 317 317 319 325 321 314 316 318 317 317 317 321 319 318 318 313 313 318 317 314 311 311 313 313 315 317 316 315 313 314 315 315 316 314 312 313 315 317 316 318 319 315 314 313 315 317 315 317 319 315 315 315 313 313 311 310 310 309 309 309 309
304 304 303 303 305 307 308 310 311 311 311 311 312 313 315 316 316 316 320 326 324 320 321 319 317 318 317 316 318 320 320 318 317 317 315 315 316 317 321 320 318 316 310 316 323 316 310 311 312 313 313 314 314 315 315 313 316 316 314 317 316 313 314 315 316 316 317 316 315 316 313 312 316 319 321 318 314 315 315 315 315 313 312 312 310 309 308 309
304 304 304 305 306 307 308 310 311 311 311 310 312 314 316 315 315 317 322 325 322 318 320 319 317 316 316 317 319 318 316 317 319 316 312 312 313 315 319 317 316 315 310 315 321 313 309 311 312 311 312 313 312 315 316 313 314 314 314 318 319 320 320 316 316 316 315 314 315 318 315 313 318 321 318 313 312 314 314 316 316 313 313 313 311 310 309 308
304 304 305 306 308 308 310 311 311 311 310 311 313 315 315 315 316 320 324 323 319 317 318 319 317 316 317 319 319 317 317 319 316 313 312 313 310 310 313 314 315 315 312 314 317 314 311 310 310 311 313 313 312 314 313 313 315 314 317 320 319 323 323 319 322 320 313 314 315 317 317 312 316 319 314 313 317 317 315 315 315 314 313 312 313 314 311 309
304 304 304 306 308 309 311 312 311 312 311 312 314 313 313 316 317 321 323 320 318 317 317 318 317 317 318 320 319 316 317 317 313 313 314 313 310 308 312 316 316 316 314 315 316 314 311 310 310 311 314 313 311 312 312 313 315 314 318 318 316 322 320 318 324 318 313 316 313 314 316 313 314 316 312 313 318 317 315 315 316 315 314 315 319 322 319 315
303 304 304 306 307 310 312 312 311 312 312 313 314 312 314 318 319 321 321 318 319 318 317 317 317 318 319 319 317 316 318 316 312 312 313 313 311 310 314 318 316 317 317 316 316 313 312 313 312 311 312 312 311 314 314 313 314 314 316 316 314 318 317 315 320 317 316 318 312 311 314 312 313 316 314 316 316 314 313 312 315 314 313 317 324 325 323 322
303 303 304 305 307 310 313 313 312 312 313 313 314 314 317 320 320 320 319 317 318 317 316 316 316 318 319 319 316 315 318 316 312 312 312 313 312 310 314 315 314 319 319 316 315 315 316 317 314 311 312 313 312 313 314 313 313 312 312 313 314 316 315 314 316 317 318 318 312 310 312 314 316 316 316 317 314 313 313 311 311 311 311 314 318 317 317 320
302 304 305 305 307 311 314 313 312 312 313 313 314 316 318 320 319 318 318 315 314 315 316 316 315 317 319 318 316 315 317 316 313 313 313 313 312 311 311 311 313 318 319 316 316 317 319 319 315 313 314 313 311 311 316 317 314 312 313 315 314 316 318 317 316 318 320 318 312 309 313 319 322 317 314 315 314 314 314 313 313 311 309 309 310 312 314 315
302 304 305 305 308 313 313 313 312 313 314 314 316 317 318 319 319 318 317 315 312 314 316 316 315 317 319 318 315 314 317 316 314 314 314 313 312 312 311 310 312 315 316 316 316 316 319 318 313 311 312 311 309 312 318 317 313 313 316 316 313 318 325 321 316 319 321 319 314 312 316 322 320 315 312 311 314 316 314 315 317 315 311 309 309 311 313 313
303 304 305 308 312 314 313 313 313 314 314 315 317 318 317 319 319 317 316 314 313 315 316 317 316 318 319 317 315 315 315 316 315 316 315 314 313 313 311 311 311 312 314 315 316 316 318 316 312 311 311 310 312 315 314 314 315 314 314 314 312 318 327 322 313 312 314 316 316 314 316 319 317 314 313 312 313 315 314 314 317 316 313 312 313 311 311 312
304 306 308 311 313 313 313 313 314 314 314 316 318 318 317 318 318 317 316 316 315 316 317 318 318 318 318 316 315 315 315 315 315 316 316 316 315 313 312 311 310 310 312 313 314 316 317 315 312 313 313 310 311 316 313 313 316 314 314 314 312 314 321 322 317 313 311 314 319 317 314 316 317 315 316 315 312 313 314 314 314 314 314 314 316 313 312 313
306 308 312 313 313 313 313 313 313 314 315 317 318 317 318 317 314 314 316 317 317 317 318 320 319 317 317 317 316 315 316 316 316 316 317 316 316 314 311 311 310 309 310 312 314 315 317 316 312 312 314 310 309 314 313 312 312 313 316 317 315 316 317 316 317 317 314 314 319 321 316 314 316 316 315 314 314 315 313 312 311 312 315 317 318 316 315 314
307 311 314 314 313 313 313 313 313 314 316 317 317 316 317 316 313 313 315 317 317 318 319 320 319 318 316 317 316 315 316 317 315 317 317 316 317 315 311 312 311 308 309 311 314 313 315 320 317 311 312 313 311 312 314 313 311 312 314 313 313 317 317 316 315 316 317 316 318 321 317 313 315 318 317 315 316 316 312 312 314 315 316 316 317 319 319 317
311 315 316 314 313 313 313 313 314 315 317 317 316 316 316 315 314 313 315 317 318 318 319 319 319 318 316 316 316 316 317 317 315 317 318 317 316 314 311 312 311 309 309 312 316 312 311 318 319 313 310 313 315 313 313 314 313 312 313 312 311 312 315 318 315 313 318 319 319 318 315 316 320 317 315 314 315 315 314 314 316 317 316 314 313 314 315 314
315 316 315 313 313 313 313 314 314 316 316 316 316 316 314 314 314 314 313 315 318 318 318 318 318 318 316 315 315 315 316 316 315 316 318 316 315 314 312 311 311 309 309 311 313 313 312 315 317 315 312 314 315 313 312 314 314 313 313 313 313 313 316 317 313 314 317 317 320 318 311 317 324 315 310 313 313 311 314 313 313 319 321 319 314 310 310 313
315 315 314 313 313 313 313 314 315 316 315 315 315 315 314 313 314 314 314 315 317 318 317 317 318 317 316 315 315 315 315 315 315 316 317 316 315 315 313 311 310 308 309 311 311 313 317 318 316 315 315 316 313 309 307 312 316 316 314 313 313 313 315 315 313 315 315 313 317 316 312 315 320 314 310 312 313 315 318 315 313 317 319 317 315 312 311 315
315 314 313 312 313 313 314 315 316 315 315 315 315 315 314 313 312 313 314 315 316 317 317 317 317 316 316 315 314 314 314 315 315 315 316 315 314 315 313 310 309 308 310 311 311 312 316 318 316 315 316 318 315 310 308 310 314 315 315 313 312 312 314 315 318 319 317 315 314 313 312 312 317 322 319 315 315 317 316 314 313 316 316 316 318 317 315 316
315 314 313 313 313 313 314 315 316 315 314 315 315 315 313 312 312 312 314 316 316 316 316 316 316 316 315 314 314 314 314 315 315 314 315 314 312 314 314 310 309 309 309 310 311 314 317 316 315 316 317 319 319 317 314 312 312 315 316 312 311 315 315 314 316 315 314 318 317 313 313 312 316 324 324 319 318 316 313 312 314 316 316 319 321 319 317 318
314 314 314 314 313 314 315 316 316 315 313 312 314 314 312 312 312 312 314 315 315 315 316 315 316 316 315 314 314 314 314 316 316 314 314 313 312 312 312 311 310 309 311 314 313 316 322 318 314 316 317 317 318 317 316 315 313 315 318 313 311 314 314 313 316 314 311 316 317 313 313 317 321 321 318 317 317 316 314 313 313 312 312 316 322 320 317 319
314 314 315 314 313 314 315 314 315 315 313 312 313 312 310 312 313 313 314 314 314 315 316 316 316 315 314 315 314 314 315 316 316 314 312 313 314 311 310 311 311 310 317 322 315 315 323 319 313 314 315 313 316 317 318 318 315 314 316 314 312 313 314 317 320 317 314 315 316 313 312 316 319 318 319 321 318 317 317 314 314 314 313 318 323 319 316 317
314 313 314 314 314 314 313 311 312 314 314 313 312 311 309 311 313 313 314 315 315 315 315 315 315 315 315 314 315 314 315 315 315 313 312 314 315 312 310 311 312 314 321 320 313 316 322 317 313 315 313 314 321 322 318 317 317 316 316 315 314 314 314 316 316 314 315 316 314 313 312 312 313 316 322 323 319 317 317 315 315 316 317 322 323 320 319 317
312 313 314 314 314 314 313 310 310 313 314 313 313 311 310 311 313 314 314 314 314 314 314 314 315 315 314 314 315 315 314 314 314 313 312 314 314 311 310 310 311 316 319 314 310 315 317 314 314 315 313 316 323 323 318 316 316 315 316 315 314 314 314 314 314 313 315 314 312 314 315 313 311 312 316 320 319 316 314 313 312 312 317 324 324 325 326 322
312 313 315 315 315 314 313 311 309 311 313 314 313 311 311 312 313 314 314 312 312 313 314 314 315 314 314 314 315 314 314 314 314 312 312 313 313 312 312 311 311 314 314 311 312 313 313 314 315 314 312 314 320 321 318 317 317 315 315 315 314 314 313 313 313 312 313 312 313 317 319 315 313 313 314 317 317 313 310 309 308 311 320 330 331 333 334 331
313 314 313 315 317 314 311 311 310 310 312 313 313 311 312 312 313 314 313 312 313 314 314 315 314 314 314 314 315 314 313 314 314 312 312 313 312 312 312 312 312 312 311 310 312 312 313 315 314 313 313 313 315 317 316 315 317 317 316 314 313 314 314 313 313 313 313 313 312 314 315 316 317 318 316 315 312 310 310 310 311 314 322 331 334 335 337 337
311 315 312 312 316 314 312 311 310 312 312 312 313 312 312 312 313 313 313 312 313 313 314 314 314 314 314 314 315 314 313 313 314 312 311 312 312 313 314 313 311 311 312 312 312 312 313 314 313 313 315 313 313 315 315 314 315 315 315 315 314 314 313 313 313 312 312 313 313 313 313 313 318 319 316 313 312 313 314 315 316 318 320 325 333 335 336 338
308 314 312 312 314 313 313 311 310 313 313 312 313 312 311 312 313 313 313 313 313 314 313 314 313 313 314 314 315 314 314 313 313 313 313 313 314 316 316 314 311 311 312 313 315 315 314 315 315 314 314 313 311 313 316 316 315 313 313 314 313 313 313 312 313 313 312 312 312 313 312 312 316 318 317 316 315 315 316 317 318 318 317 318 325 329 331 333
Wind_Speed
18 18 20 22 21 21 25 26 25 28 31 34 35 34 34 36 35 33 32 31 30 29 31 31 28 27 24 21 15 11 12 10 8 7 6 5 7 8 9 9 8 6 5 4 4 4 7 9 7 9 8 6 5 4 5 4 1 2 2 2 2 3 3 4 6 5 3 2 3 4 4 7 6 2 2 2 4 3 0 3 3 3 2 3 4 1 17 27
16 18 19 21 23 21 22 27 27 26 29 33 36 35 34 35 36 36 37 35 34 33 33 33 31 28 26 23 18 13 11 9 7 9 14 12 6 9 12 10 9 8 6 3 4 4 5 4 6 9 6 2 3 5 5 3 1 1 2 2 3 4 3 4 5 4 2 2 2 4 2 4 6 5 4 3 1 2 2 4 4 4 5 1 3 12 23 27
16 17 18 19 22 23 21 24 28 28 27 29 35 37 34 34 37 37 39 39 37 36 35 34 33 31 28 23 18 14 10 5 5 11 22 19 11 11 12 10 10 7 6 4 4 5 6 8 11 9 4 2 1 3 5 3 1 1 3 1 4 4 4 4 4 4 5 3 2 4 2 3 5 4 4 4 3 2 6 7 2 5 7 1 6 15 21 24
17 17 17 18 19 23 23 22 26 28 28 27 30 37 37 35 37 37 39 40 40 38 37 35 34 32 30 23 15 13 7 1 5 14 26 27 20 16 12 10 10 8 7 6 5 6 9 12 11 6 4 1 0 2 1 3 2 0 3 4 5 2 3 4 4 5 5 3 3 2 4 3 4 3 4 6 6 4 8 9 9 10 8 7 7 13 19 21
17 17 17 17 17 20 23 23 23 25 30 28 26 33 39 37 36 37 38 39 40 39 38 36 34 32 31 24 15 13 9 2 5 13 24 29 26 23 19 15 13 11 10 8 8 10 10 9 6 4 3 1 1 3 3 4 2 1 2 5 6 2 3 5 3 3 2 1 2 3 4 4 3 1 4 9 8 6 6 8 10 9 9 12 13 14 17 17
17 17 17 18 18 19 21 24 23 23 28 30 27 29 38 39 37 38 38 38 38 38 37 35 34 33 32 26 19 17 10 2 3 4 12 22 28 28 24 19 16 15 12 11 12 12 8 4 4 3 2 3 4 5 3 2 1 1 2 1 4 3 4 5 1 3 2 4 4 4 4 4 5 2 3 8 10 4 2 5 8 7 9 14 16 16 15 15
17 17 17 18 19 19 19 22 24 23 25 30 28 26 33 38 37 38 39 39 37 37 36 33 32 31 29 26 21 14 9 6 3 1 1 12 26 27 24 20 18 17 13 14 14 10 5 4 3 4 4 3 5 6 2 1 1 1 3 2 3 3 5 5 3 4 3 7 6 4 2 4 9 4 1 6 10 3 4 3 5 9 10 12 14 14 15 18
17 18 18 18 19 19 19 20 22 24 24 26 28 26 29 36 38 37 38 39 37 36 35 33 31 29 30 27 17 7 7 12 8 0 4 10 23 25 23 21 19 18 17 19 17 11 7 6 6 4 4 4 4 5 2 0 0 1 4 3 2 2 5 6 5 4 2 6 3 3 2 3 8 5 2 8 10 5 2 3 6 9 10 10 11 12 13 15
17 18 18 19 19 19 20 20 20 23 24 24 27 27 28 35 40 37 38 39 37 37 34 34 32 29 32 24 11 6 10 21 16 1 6 12 21 24 22 20 19 19 18 18 17 16 10 7 8 4 4 4 4 5 3 2 3 3 4 3 1 4 7 6 4 2 2 3 2 4 2 3 3 3 2 9 7 4 3 6 5 7 9 9 10 11 12 12
18 18 19 20 20 20 21 21 21 23 24 24 26 28 28 33 40 38 38 38 37 37 34 34 33 33 32 18 9 6 9 25 22 6 6 11 17 22 21 19 21 21 17 14 15 17 10 7 8 4 3 2 3 4 3 4 3 3 4 3 4 3 7 3 2 3 3 2 3 5 2 2 3 1 4 6 2 4 7 5 3 6 8 10 9 10 12 13
18 18 18 19 20 21 22 22 23 22 24 25 26 28 28 30 37 39 38 39 37 37 36 34 35 36 30 15 10 7 7 21 24 15 12 12 16 21 23 23 23 23 19 13 14 17 11 10 12 6 1 2 4 3 1 4 3 3 4 4 5 2 5 4 4 5 2 1 4 6 3 2 3 1 6 3 1 4 6 5 5 6 7 8 8 7 9 12
19 18 18 19 21 22 22 23 23 23 24 25 26 28 30 30 34 41 39 39 38 36 37 36 36 36 24 11 11 10 10 16 20 22 19 14 16 20 21 23 23 24 23 15 14 17 12 13 17 7 3 5 5 2 3 5 4 2 4 3 5 3 5 6 4 3 0 2 4 5 1 3 2 6 6 1 3 5 6 6 5 7 6 6 7 6 7 10
20 20 19 19 20 22 23 23 23 23 24 25 26 27 31 31 31 41 43 39 39 38 38 38 38 34 19 7 10 15 14 11 15 22 22 17 18 20 22 24 24 24 24 20 19 19 15 15 16 7 3 5 3 2 1 2 3 2 2 1 3 3 5 5 1 1 2 2 2 3 2 4 8 11 4 2 4 7 6 6 6 6 6 5 6 5 6 9
21 21 21 20 20 22 23 24 23 24 24 25 27 27 31 31 30 38 44 40 39 39 37 38 40 31 15 5 7 21 19 9 16 23 24 23 20 21 23 23 23 22 20 19 19 19 16 14 10 4 2 3 2 1 2 3 1 2 1 1 0 1 5 5 0 2 3 2 1 3 4 5 9 10 3 3 5 7 7 7 6 7 6 6 6 6 7 9
21 22 23 21 21 22 24 25 24 25 25 26 27 28 31 31 30 33 42 43 40 40 38 39 40 23 6 3 6 23 23 11 18 26 26 27 23 18 18 21 18 15 14 13 15 15 14 11 5 4 2 1 3 3 2 2 3 2 2 1 1 2 4 6 1 5 4 2 2 4 4 5 9 9 3 2 4 6 8 7 7 7 7 7 6 7 7 8
22 23 24 23 23 23 25 27 27 27 27 27 27 28 30 30 30 32 38 44 40 41 38 31 35 22 2 4 9 18 21 14 19 24 26 29 25 19 20 20 14 11 12 10 14 14 11 7 2 2 2 2 3 3 3 1 1 1 1 2 1 3 3 5 3 4 3 1 0 3 3 3 6 5 4 1 5 6 6 7 7 7 7 7 6 7 7 7
22 24 25 25 25 24 25 28 29 29 28 28 28 28 29 30 32 31 33 43 42 44 40 27 31 21 2 5 10 13 17 18 21 24 26 27 25 26 25 16 12 15 13 9 11 10 5 3 0 0 2 2 3 4 4 4 3 0 1 3 3 4 4 3 4 3 2 1 3 4 4 5 7 6 4 3 5 6 6 9 7 6 6 6 6 6 6 7
22 24 25 26 27 26 27 29 30 31 29 28 28 28 28 29 31 30 33 42 42 38 34 23 24 14 4 11 13 13 20 22 24 25 25 21 22 30 26 14 12 15 12 5 3 3 2 1 1 1 2 2 3 5 6 6 7 7 6 6 3 2 3 4 4 2 4 3 3 5 5 6 11 12 6 1 4 6 8 8 5 6 7 7 6 7 7 8
23 23 23 25 27 28 28 29 31 32 30 28 28 28 26 24 23 26 32 32 27 20 15 13 18 9 5 16 14 14 24 28 26 23 22 21 23 25 19 15 14 12 9 3 1 2 2 2 2 4 4 5 5 8 9 7 9 10 6 5 4 3 4 4 4 3 2 3 4 7 6 7 12 15 9 3 2 5 6 6 5 7 7 7 7 7 8 9
24 24 24 24 26 29 30 30 31 32 30 28 27 22 16 12 11 13 20 19 12 13 13 17 24 12 4 12 15 19 23 22 17 15 23 26 26 20 10 9 9 5 7 7 4 2 3 4 6 7 7 8 9 8 6 4 5 6 4 4 5 5 4 4 2 5 1 2 5 6 6 7 10 14 10 3 2 4 6 6 7 8 8 7 8 8 9 11
27 27 25 26 27 29 30 31 31 32 31 31 27 15 6 10 10 5 9 12 16 18 11 20 29 13 7 17 24 26 17 8 6 10 24 28 26 19 5 6 9 4 5 7 5 3 4 8 8 7 7 8 9 6 5 4 4 6 6 5 4 5 5 4 3 3 1 3 4 3 4 8 9 14 11 5 4 6 8 8 9 10 10 7 8 10 11 10
29 29 28 28 29 29 31 32 32 33 33 32 27 13 8 18 17 6 4 7 19 20 8 19 26 7 10 22 31 34 17 6 7 10 22 25 18 13 5 7 10 6 5 7 5 4 5 7 6 7 7 7 6 6 6 5 4 5 4 4 5 4 3 5 3 2 0 4 4 2 2 8 9 14 14 7 7 9 9 10 10 11 9 7 8 11 11 10
32 33 32 29 29 32 33 33 33 33 33 30 24 17 22 32 25 13 4 3 11 14 7 19 22 7 11 17 28 35 18 10 14 13 24 25 13 11 10 10 10 7 7 9 8 7 5 5 8 8 6 8 6 6 7 5 3 4 3 4 4 2 2 4 3 2 1 1 2 1 2 6 7 10 13 10 8 9 9 10 10 9 8 10 11 10 10 11
33 35 35 32 32 33 33 34 33 32 34 32 29 33 37 34 26 21 10 4 6 6 6 18 17 9 12 14 25 30 13 9 13 15 25 22 11 10 12 11 11 9 8 10 10 8 5 4 7 7 5 8 6 4 7 5 5 4 4 5 3 2 3 4 1 2 3 2 1 1 4 6 5 8 12 7 4 7 9 8 9 9 9 10 8 8 9 11
35 38 38 38 36 35 35 33 29 32 34 30 34 43 42 30 23 20 9 4 5 2 3 12 8 7 13 16 22 20 9 7 9 14 21 20 16 11 7 7 8 10 13 13 9 6 5 4 8 10 6 8 7 6 7 7 5 5 5 7 6 6 4 2 0 1 2 3 2 1 3 7 4 7 12 7 3 7 7 6 9 10 9 8 8 10 11 11
38 39 41 42 39 38 32 20 25 35 27 25 39 44 38 32 25 17 6 5 5 1 5 10 6 13 19 13 14 14 10 7 8 19 21 20 20 11 7 6 2 9 13 10 5 3 5 5 9 12 9 8 7 6 6 8 6 4 6 9 7 6 4 2 2 1 2 4 3 1 5 7 5 6 10 7 6 8 8 8 10 9 8 8 9 11 11 11
38 39 42 43 41 38 24 11 25 31 17 24 44 42 34 32 25 16 6 7 6 4 9 7 4 19 21 13 17 16 11 9 9 15 19 21 20 9 10 9 2 6 8 6 4 3 8 8 7 11 10 8 8 8 8 10 7 4 5 10 9 7 7 6 4 3 3 2 3 0 2 5 6 6 7 3 5 9 8 10 11 9 9 10 11 12 12 12
38 40 43 45 45 40 28 23 27 23 26 41 44 39 36 32 23 13 4 8 4 6 8 4 4 18 16 12 20 12 9 17 13 10 14 17 14 7 12 13 8 10 9 10 7 2 9 12 12 14 12 9 9 7 9 11 7 5 3 7 7 6 6 6 5 5 1 3 5 3 1 4 7 6 3 1 5 11 9 9 12 10 10 11 12 12 12 12
38 41 43 45 45 41 39 40 32 28 47 52 38 37 38 30 17 6 5 7 2 2 4 5 7 14 11 10 16 8 8 14 8 7 10 8 4 2 7 10 10 13 9 8 6 2 4 9 13 14 10 8 6 6 10 12 7 3 5 6 4 3 2 1 3 2 2 3 8 4 3 5 8 6 3 1 5 9 7 8 11 11 10 10 10 10 10 9
40 41 45 44 40 38 39 41 41 47 54 45 36 38 35 23 10 5 9 6 4 1 3 7 9 13 17 15 10 8 10 7 6 12 7 3 2 3 5 5 7 9 7 3 3 2 2 0 5 7 6 6 6 5 5 10 8 5 6 6 6 4 4 3 1 3 2 6 6 3 6 4 8 6 7 4 5 7 7 7 9 10 10 9 8 8 9 8
42 43 46 43 39 38 28 27 45 57 48 40 39 35 23 11 5 8 10 2 4 4 4 8 12 16 23 21 10 9 13 8 10 16 9 4 4 4 7 6 3 5 6 5 4 1 4 4 3 2 1 5 8 4 2 3 6 7 5 4 3 1 3 3 3 3 3 7 3 2 3 5 8 7 5 5 6 6 8 8 10 12 10 8 8 8 7 6
43 45 46 44 44 41 31 34 53 56 44 44 37 19 9 7 8 10 5 3 4 5 4 9 15 18 22 20 12 11 14 11 12 18 14 10 8 9 12 10 8 8 7 9 6 1 3 1 2 1 1 4 9 5 2 5 3 5 4 5 4 0 1 2 2 1 5 6 2 2 2 4 9 7 3 6 7 7 9 9 11 12 9 8 8 7 6 5
44 45 44 47 48 43 49 55 59 54 48 48 29 8 7 8 10 12 6 2 3 2 4 10 16 21 22 18 11 12 14 12 15 18 16 12 10 11 10 9 12 8 5 9 7 4 2 4 2 3 2 3 9 9 4 2 4 7 6 7 7 4 4 7 4 2 5 5 2 2 2 4 6 5 6 9 9 11 10 9 10 10 9 10 8 7 6 6
45 44 43 48 49 47 61 60 55 56 53 41 18 7 11 9 8 16 12 4 1 4 8 14 19 21 19 15 14 14 11 10 16 19 16 11 9 10 7 9 15 7 4 8 6 7 9 4 5 8 3 5 11 9 7 7 6 6 5 5 6 5 5 6 5 3 4 3 2 2 3 4 3 3 7 10 9 10 7 6 8 8 9 9 7 8 8 8
44 44 44 46 45 51 63 55 56 61 48 25 10 8 12 10 8 15 13 5 3 5 10 16 19 18 12 9 12 11 4 8 16 15 13 12 11 12 9 11 17 9 7 9 4 5 11 6 3 2 1 9 12 6 6 9 5 3 3 4 5 6 5 3 3 4 3 1 3 3 4 4 4 6 9 6 7 9 8 7 7 9 9 6 7 9 9 9
41 42 40 38 40 53 58 53 60 62 38 15 8 8 12 10 6 9 10 9 7 10 13 14 14 13 9 7 9 7 2 8 17 12 9 11 10 13 12 10 13 10 9 10 3 4 8 4 3 3 2 8 10 7 6 7 6 2 3 6 6 4 7 4 2 0 3 3 4 2 5 6 3 8 10 6 6 8 8 8 8 11 9 6 8 8 8 10
35 32 26 29 40 53 55 56 61 52 28 13 9 9 11 10 4 5 12 14 12 16 16 11 9 8 8 7 7 9 8 9 11 9 8 9 8 11 13 8 11 14 14 11 3 3 6 2 2 1 4 3 2 5 4 2 5 6 5 7 3 2 3 3 2 1 2 5 4 1 6 6 3 6 6 4 7 10 11 9 8 9 7 7 9 8 9 9
29 21 17 25 44 54 57 62 56 35 17 12 10 10 13 11 5 6 14 19 18 18 15 8 6 6 8 10 9 11 15 13 11 9 9 8 6 12 16 10 11 17 13 8 4 3 5 4 3 2 5 1 1 5 4 1 2 5 6 6 5 3 3 2 2 3 3 4 5 3 4 4 7 6 3 3 8 12 14 10 6 8 8 8 9 9 8 7
23 15 10 26 50 56 60 61 42 20 12 11 12 12 10 8 7 8 14 21 21 19 16 10 6 6 8 12 14 14 16 16 15 12 10 9 6 12 20 13 10 18 13 7 5 4 5 5 1 2 2 2 1 3 8 6 1 2 3 4 3 3 4 3 3 4 4 4 5 4 4 4 7 7 5 7 8 10 13 10 7 9 9 8 9 8 7 6
15 10 7 33 55 56 62 52 25 12 10 10 13 12 7 6 10 12 14 18 18 14 15 15 11 9 10 12 13 14 12 14 17 12 10 12 8 8 18 13 9 16 13 5 5 5 4 4 3 0 0 3 3 4 9 10 6 3 4 6 4 1 2 2 2 2 3 4 4 2 5 7 6 5 9 10 9 11 13 11 8 8 7 8 7 5 4 4
16 7 7 40 60 58 50 28 10 11 9 10 16 12 9 7 9 15 16 15 12 6 9 19 19 15 14 14 13 11 8 11 15 10 6 12 11 7 15 17 12 14 12 5 5 6 3 3 6 4 2 4 4 4 3 8 9 8 6 7 6 4 4 3 5 3 3 3 5 3 6 9 5 5 8 10 11 13 11 8 7 7 7 7 6 5 4 5
12 5 11 46 67 55 32 10 7 13 10 12 13 6 8 10 9 17 18 15 11 5 5 15 20 18 16 17 17 14 11 10 13 12 8 14 18 11 12 17 16 16 15 8 5 4 3 5 6 3 3 4 3 3 1 1 4 6 5 6 7 6 6 7 7 4 2 1 2 4 4 9 4 5 7 8 9 7 4 3 5 7 7 5 6 6 5 4
8 6 17 55 74 49 20 9 12 14 9 9 11 7 7 9 11 15 16 16 12 7 6 9 14 15 13 14 16 15 13 10 12 16 10 11 16 10 8 16 18 17 14 8 6 5 4 5 5 3 1 3 4 4 3 3 1 4 6 6 8 7 7 6 4 4 3 4 3 2 5 9 5 1 3 6 7 7 5 3 4 6 6 4 5 6 4 3
10 6 9 45 66 45 18 12 14 14 9 7 13 15 6 4 13 15 15 16 11 7 10 9 12 13 11 13 16 16 15 9 9 13 8 6 8 4 10 19 20 17 13 9 9 7 4 4 6 5 2 2 3 3 3 3 4 4 3 3 5 4 6 5 2 4 3 6 7 5 7 8 4 4 4 6 7 8 9 6 5 6 6 5 5 4 4 4
11 4 3 19 34 29 14 11 15 17 14 9 13 18 9 3 12 17 18 15 9 9 12 10 14 15 12 15 15 16 16 8 7 10 4 3 2 0 11 20 20 16 10 8 10 7 3 5 6 8 9 8 8 6 4 5 4 1 1 4 5 6 8 6 4 4 6 6 7 7 10 8 5 5 6 6 5 8 9 5 4 6 5 5 5 4 4 4
9 4 6 6 8 14 9 6 13 16 17 13 9 14 15 9 9 16 20 15 11 12 11 12 17 15 15 19 16 15 14 3 4 9 7 8 4 1 10 19 18 15 11 13 15 8 3 4 6 9 11 11 9 5 4 7 7 3 2 6 6 6 7 6 5 5 7 2 3 10 12 9 7 5 6 7 5 7 7 5 6 6 5 5 5 4 4 4
7 4 11 9 5 10 7 5 10 12 16 16 8 9 14 12 10 14 17 11 9 10 6 9 16 15 16 20 15 15 13 4 4 10 9 7 4 2 8 14 15 16 15 15 15 8 4 6 9 12 14 11 7 5 7 11 11 10 9 9 10 9 8 8 6 11 7 5 9 16 12 12 12 6 7 8 6 7 7 5 6 6 5 5 4 3 4 4
4 1 10 12 10 12 10 8 10 10 15 17 10 9 14 14 13 16 12 5 6 11 7 6 14 18 21 23 17 14 12 6 6 11 9 6 5 6 7 7 10 16 16 12 11 8 6 8 10 12 12 8 6 7 10 10 9 12 14 14 14 14 14 13 15 19 12 8 18 15 11 17 14 7 9 10 7 7 6 5 5 3 3 3 3 3 4 5
4 3 4 4 7 15 17 15 15 12 15 15 9 10 17 18 16 15 10 5 6 11 11 12 16 18 21 22 17 15 16 13 11 11 11 13 13 12 10 7 8 13 15 12 9 7 7 8 10 12 10 7 6 7 10 10 7 8 12 15 15 15 17 16 20 25 19 20 22 7 3 12 10 7 11 8 5 6 4 3 2 1 3 5 5 6 7 7
4 5 7 4 4 12 16 16 16 13 11 10 9 9 14 20 20 14 9 10 12 10 10 16 20 19 21 22 18 17 21 22 21 20 19 19 16 13 13 12 10 11 14 12 8 6 6 7 8 9 7 5 5 5 6 8 8 8 10 12 12 14 16 19 25 25 18 21 21 6 3 8 6 6 8 4 3 4 4 5 5 4 6 6 6 7 7 7
1 2 7 9 9 12 15 13 13 14 10 7 9 10 11 18 21 15 9 10 15 14 13 20 23 19 19 22 21 21 26 28 28 27 25 21 15 10 8 9 13 14 12 9 7 6 7 5 5 7 7 5 3 6 7 6 7 5 6 11 15 17 19 20 21 16 13 14 14 10 9 8 5 4 4 2 3 5 6 7 6 7 7 7 8 9 8 9
2 4 5 8 8 10 14 13 11 13 10 7 9 10 12 16 17 17 11 8 10 13 15 22 26 20 18 23 26 26 26 22 16 13 13 10 7 7 7 8 13 16 12 7 4 3 6 6 4 7 9 3 1 6 9 8 6 2 8 15 21 20 18 16 12 11 13 12 11 12 10 6 6 6 5 4 5 7 8 8 7 8 8 8 8 9 9 10
Wind_Direction
233 237 235 235 235 235 234 229 227 226 220 212 208 205 199 197 199 198 196 194 193 195 196 195 199 200 198 202 209 215 204 212 244 258 256 237 229 215 185 173 167 164 164 134 78 58 61 61 76 90 84 45 6 332 350 349 7 36 87 132 203 187 200 186 187 195 172 302 279 246 226 176 184 189 172 101 63 71 84 298 301 286 276 238 283 213 162 166
231 233 234 234 235 236 236 232 227 227 226 216 208 206 203 198 198 199 198 196 195 197 197 196 199 200 201 208 217 220 210 219 255 259 241 237 241 205 188 188 191 205 211 154 88 109 106 82 116 103 79 62 349 346 357 346 19 71 122 143 214 197 217 203 182 184 191 293 245 224 218 200 201 163 158 186 207 83 161 260 330 305 279 342 109 147 156 162
232 233 233 232 234 236 238 236 230 228 230 224 212 206 205 203 200 199 200 200 200 200 200 200 200 202 206 213 222 226 214 225 270 255 240 236 236 204 185 188 184 189 196 156 114 127 136 134 134 118 65 60 58 2 4 346 315 207 137 140 249 235 270 251 202 208 229 242 226 233 157 189 231 163 156 181 168 153 199 220 221 237 244 165 135 148 156 162
233 235 237 234 233 234 238 242 237 232 233 235 223 210 207 206 203 201 201 202 203 204 205 206 206 205 209 211 216 211 182 17 264 246 243 238 233 218 205 204 193 197 196 160 139 151 141 129 126 106 80 74 70 106 62 290 275 210 144 175 220 229 299 265 212 229 247 236 215 194 134 188 233 169 162 148 140 237 234 217 204 208 197 166 160 158 161 165
234 236 239 239 237 234 236 242 244 239 235 239 237 218 208 207 205 203 203 203 204 206 206 208 210 209 209 207 199 178 136 31 243 238 246 239 230 222 220 221 208 206 198 168 141 151 150 129 113 75 80 130 128 135 184 230 198 208 211 185 205 195 279 264 211 217 236 227 202 147 166 195 173 161 174 160 176 233 240 219 208 202 177 166 165 164 167 170
236 236 238 240 240 238 236 238 244 244 237 236 241 228 211 207 207 205 205 203 203 205 206 208 210 210 210 204 189 170 156 221 206 214 241 228 224 219 217 218 205 203 199 174 147 144 145 111 121 123 105 131 176 190 194 222 155 230 271 209 232 225 243 271 308 241 193 144 181 183 204 159 147 225 179 180 208 215 301 242 202 184 174 167 160 162 170 176
239 237 237 239 240 241 239 237 240 245 242 232 237 239 217 207 207 207 206 204 203 203 204 206 205 204 200 189 179 178 189 226 211 106 217 203 213 212 207 207 200 201 196 171 152 144 129 109 168 153 128 137 184 197 194 313 34 261 257 233 240 209 223 272 329 289 218 183 208 184 157 152 177 209 115 212 227 218 341 300 166 151 153 159 161 169 179 182
241 240 240 241 241 242 241 240 238 242 244 234 234 244 228 211 208 208 205 204 202 201 202 201 200 194 183 171 166 187 211 216 220 217 74 160 192 196 191 192 194 194 188 177 163 151 138 155 190 149 157 204 182 178 165 55 350 246 231 227 262 235 242 280 301 306 271 218 218 134 165 216 191 166 138 237 243 247 340 57 121 132 140 162 176 181 185 187
242 244 243 244 244 243 242 242 241 240 243 239 234 241 237 217 208 208 207 204 201 201 199 197 196 187 179 169 160 204 210 208 217 206 99 144 175 185 183 180 186 188 185 188 175 159 157 179 193 161 172 204 166 170 154 162 221 211 195 214 282 298 285 296 301 311 312 253 161 154 228 303 206 146 256 253 245 217 101 89 123 134 150 176 185 189 190 192
244 245 244 246 246 246 245 242 243 243 243 243 238 238 239 221 208 207 207 204 201 200 195 192 189 179 177 169 166 208 207 205 212 210 157 149 162 177 186 187 186 188 189 191 181 170 172 180 171 140 129 148 170 171 137 168 202 167 170 223 208 269 294 296 299 289 301 288 169 176 192 309 274 207 250 264 256 149 114 106 147 155 174 186 190 196 196 199
246 246 246 246 247 247 248 245 246 247 245 244 244 240 240 229 210 206 207 204 201 199 194 190 183 177 178 173 190 203 188 198 203 206 194 168 170 179 190 196 189 190 191 190 192 186 186 172 149 124 124 156 164 156 206 197 157 154 186 245 233 260 298 276 284 285 293 260 177 155 168 279 339 246 232 245 92 140 134 143 173 184 197 195 197 200 200 209
250 249 247 247 248 248 248 248 246 248 248 246 246 243 240 237 218 207 207 203 201 199 195 191 185 181 177 185 212 192 181 194 194 204 203 186 193 192 190 194 193 196 194 189 194 190 189 172 153 150 199 149 138 148 242 199 140 197 190 227 276 314 293 262 260 274 13 226 191 136 180 285 253 234 239 166 110 116 130 164 187 199 207 205 204 205 209 215
254 253 251 249 248 248 248 248 247 246 248 246 245 245 240 240 229 210 204 202 200 198 196 192 188 182 176 202 211 187 189 186 185 200 200 197 202 193 190 194 196 201 203 199 192 188 188 178 167 171 179 140 153 194 147 129 137 213 169 121 305 317 279 268 272 239 137 194 218 149 241 270 242 238 227 116 132 114 137 192 200 208 211 209 207 208 219 215
255 257 255 253 250 249 249 247 247 243 244 246 242 245 240 237 236 214 201 200 197 195 195 190 187 184 189 207 177 191 199 177 179 189 187 189 184 179 187 191 192 196 201 201 191 187 181 172 164 154 141 127 151 160 53 24 73 162 156 115 17 207 261 289 326 184 179 200 49 146 222 265 258 251 220 177 165 144 184 213 208 213 211 210 211 211 223 218
253 257 257 255 252 250 250 246 245 242 241 243 240 244 241 232 235 222 202 196 195 193 191 187 185 180 196 245 169 192 198 176 179 184 185 185 172 166 180 179 182 185 188 192 182 177 168 155 139 137 158 100 116 116 89 1 10 79 168 239 351 172 268 302 261 180 202 269 67 150 215 264 267 266 262 207 179 175 207 218 216 219 214 211 214 215 224 228
252 257 259 259 255 249 250 248 245 243 240 240 239 243 243 233 232 230 208 194 192 190 184 182 182 174 195 216 161 180 189 185 187 187 189 190 181 167 160 157 150 150 160 163 160 156 149 141 116 146 136 103 140 136 123 168 316 32 148 204 238 182 230 298 279 200 198 292 255 188 214 265 275 285 339 16 168 183 222 230 225 221 222 219 215 222 224 232
255 258 260 262 259 252 249 248 247 244 241 240 239 241 245 237 229 234 220 197 188 185 183 180 177 175 229 154 148 173 182 182 184 182 181 189 188 162 145 139 121 122 126 124 144 143 125 130 127 159 115 127 167 157 160 191 195 197 189 200 229 209 203 234 255 236 162 170 238 210 209 241 265 276 320 3 148 170 225 236 236 229 234 234 226 234 232 231
259 260 261 262 261 256 249 246 247 244 241 239 238 240 243 238 227 233 229 199 180 179 186 182 170 171 226 180 176 181 172 169 172 173 173 178 177 157 145 138 123 116 108 94 136 136 106 99 119 160 166 177 167 172 194 198 185 193 199 199 226 254 242 233 244 238 166 191 233 205 212 238 262 270 267 289 138 173 225 240 249 243 236 237 232 233 235 234
261 260 261 263 261 257 250 245 246 243 241 238 238 241 242 240 227 231 233 204 174 175 185 173 174 184 205 185 176 161 165 167 165 164 162 158 155 147 136 132 128 122 128 149 192 171 149 100 141 185 187 189 185 196 205 203 197 197 192 192 188 200 254 245 250 287 173 189 237 213 217 221 242 261 259 245 153 185 241 267 257 246 238 233 231 231 233 233
264 263 263 265 263 259 250 244 245 241 237 233 230 233 236 229 213 224 232 219 200 196 176 165 182 190 125 152 145 140 156 160 154 153 155 152 143 129 111 119 115 111 148 161 173 181 161 163 196 196 185 189 195 200 188 175 196 188 171 200 201 194 248 254 249 317 7 184 256 231 233 238 238 259 260 198 147 219 249 260 250 246 241 231 229 234 233 232
265 266 267 267 265 259 249 244 242 237 234 229 220 218 223 207 200 204 210 219 232 221 193 171 182 188 128 145 147 140 137 123 105 137 152 151 142 133 141 149 130 146 157 138 132 128 174 194 197 182 181 191 193 185 155 140 167 177 182 196 217 208 235 254 222 306 9 174 270 294 247 257 253 262 262 182 173 240 233 231 241 242 239 230 229 236 238 241
265 268 269 267 266 260 251 247 241 235 231 225 217 213 236 225 215 208 179 224 226 219 218 183 182 183 134 151 154 147 134 110 118 147 157 154 154 155 172 165 154 161 143 121 118 146 192 203 185 169 175 177 181 183 182 192 169 163 166 165 213 221 234 264 247 292 72 175 254 309 227 255 255 259 263 229 209 240 228 221 232 234 234 228 223 232 238 247
266 269 269 267 267 259 253 249 242 234 226 220 216 212 228 230 227 227 222 311 226 205 204 189 180 159 147 152 156 154 149 154 155 174 169 161 167 166 155 167 163 139 148 161 159 168 189 205 188 174 166 164 175 185 184 209 204 165 140 148 209 221 179 242 264 296 285 156 213 180 260 263 256 266 268 242 218 245 243 231 236 234 227 225 225 229 231 236
267 268 268 268 267 261 256 251 242 232 223 220 219 220 225 228 232 232 228 326 247 209 201 189 175 159 159 150 161 162 157 159 159 173 173 164 157 152 154 165 154 142 178 182 166 171 192 213 174 149 151 166 166 178 174 195 225 211 179 164 177 181 195 227 274 285 287 345 84 98 315 277 235 251 262 247 212 255 255 239 246 245 233 236 245 243 231 230
268 268 269 269 268 263 255 247 237 228 223 221 221 224 224 224 230 225 221 287 241 280 236 187 169 161 153 146 164 160 135 149 160 167 174 167 151 144 156 161 155 168 182 174 162 179 210 216 153 143 169 175 170 193 184 178 205 241 212 175 170 186 210 251 259 17 327 308 295 130 275 274 254 241 249 258 260 256 257 242 241 244 237 236 247 245 236 235
267 269 269 267 268 260 252 242 226 222 220 221 221 221 219 219 222 203 187 268 233 266 209 175 154 165 158 153 157 139 141 177 158 159 169 168 157 144 147 155 166 176 171 163 158 190 199 188 157 159 174 171 180 209 194 167 170 243 212 167 172 202 225 233 167 161 217 258 287 154 223 264 295 253 238 256 273 262 266 264 251 247 244 228 231 239 235 236
266 269 267 267 266 253 244 227 218 215 210 224 220 215 212 209 203 178 170 260 226 182 184 176 167 169 166 167 154 144 163 155 126 162 173 167 163 149 155 167 159 161 154 142 182 211 161 156 156 160 160 168 196 210 190 167 163 233 203 156 170 205 225 217 183 218 235 277 294 208 216 268 278 251 231 241 284 276 272 269 263 251 245 235 230 236 234 234
267 267 266 268 262 250 244 228 212 202 212 222 214 205 205 197 179 158 194 248 201 140 166 170 147 158 159 165 158 149 143 136 136 184 179 166 167 157 172 183 166 154 158 163 188 203 143 162 175 166 167 189 200 186 163 159 180 237 175 141 171 192 213 213 200 230 292 344 266 227 82 271 264 258 246 182 256 262 262 263 265 255 244 239 235 236 235 237
267 266 266 265 261 260 253 231 210 206 217 216 204 196 193 181 168 156 235 233 142 89 168 147 140 146 143 158 163 153 130 137 145 160 162 174 182 119 166 174 146 145 170 180 172 145 163 185 176 163 176 193 171 138 151 165 193 221 118 90 66 84 69 126 189 201 46 293 252 208 159 247 267 246 203 205 246 248 256 258 260 256 248 246 246 244 242 242
265 265 265 261 261 262 249 225 212 214 214 206 193 186 174 166 172 208 224 207 104 259 217 147 154 152 148 156 171 164 140 130 124 133 150 213 163 75 97 96 97 133 173 204 150 182 287 75 150 158 185 176 128 100 154 168 160 125 106 71 49 52 46 52 82 81 98 263 268 204 175 215 276 247 175 200 218 202 223 249 261 262 259 257 255 250 247 247
265 266 264 259 259 253 234 210 209 211 206 192 181 172 162 168 202 216 221 171 98 221 213 151 154 154 156 160 167 164 142 122 133 140 154 193 152 125 119 110 73 119 163 201 197 259 24 75 167 223 190 136 116 100 32 115 135 129 124 114 94 10 27 36 7 66 203 247 278 263 170 167 252 245 165 217 235 200 207 219 243 254 257 259 257 251 246 247
264 265 262 257 259 246 215 198 203 202 191 179 170 159 166 194 209 213 207 103 151 205 187 154 153 157 162 159 158 161 145 136 148 148 157 175 169 167 167 170 167 151 174 193 184 67 61 140 236 311 292 150 134 139 19 27 111 143 136 141 150 305 28 207 251 185 229 249 230 191 154 187 243 251 225 258 268 242 223 213 230 246 254 257 258 255 252 250
264 265 259 257 260 236 206 200 198 188 177 170 164 159 195 208 209 194 168 150 188 160 155 158 156 161 162 157 159 157 144 148 158 153 159 173 175 180 182 173 170 170 177 171 151 133 176 300 284 164 256 193 156 163 178 160 168 169 165 169 173 169 181 205 217 223 244 253 232 176 170 244 271 272 232 234 245 242 235 231 236 242 247 249 258 271 280 279
267 263 257 259 259 226 201 197 188 175 167 164 166 184 196 215 197 174 180 206 127 121 156 158 157 163 165 162 163 157 145 154 160 156 160 167 175 183 178 174 181 173 105 149 160 165 178 240 214 180 200 184 174 179 164 139 159 182 160 147 179 188 183 195 199 210 228 245 274 234 191 208 224 257 233 226 251 267 267 263 256 254 252 252 273 283 281 278
267 261 259 259 247 211 194 188 177 169 163 161 180 198 200 205 176 177 184 159 127 148 149 154 156 161 168 167 167 168 151 154 159 157 163 168 176 182 179 185 187 168 131 165 185 169 180 219 243 187 156 165 170 175 125 115 145 210 123 129 209 202 146 128 185 182 166 207 255 221 223 220 206 276 274 248 267 278 275 278 272 266 262 257 266 265 261 264
265 263 260 246 220 195 187 179 169 165 161 163 196 202 205 199 175 184 166 138 155 145 138 159 163 159 166 161 170 178 106 142 158 155 166 175 181 186 184 188 185 170 158 163 144 155 179 221 329 29 103 172 168 162 158 158 167 157 149 184 212 174 122 110 230 34 87 210 248 206 247 285 311 285 273 247 263 281 274 269 260 258 260 252 251 248 248 254
263 260 245 219 198 185 179 172 165 164 164 176 200 197 199 198 172 154 148 148 155 142 142 168 172 163 159 145 168 169 125 129 157 153 158 171 186 192 189 192 186 185 180 166 159 199 162 122 338 106 148 200 171 132 149 190 148 135 190 196 144 92 117 116 207 330 89 223 269 250 239 268 275 266 274 242 250 270 266 253 250 262 263 248 248 243 240 246
257 241 219 197 184 177 171 167 164 164 166 181 198 194 194 194 168 151 159 157 155 153 156 167 172 175 161 151 167 170 151 148 162 159 155 170 193 188 187 193 192 193 189 152 143 209 145 110 317 250 151 162 20 118 140 300 132 146 190 183 135 164 209 140 172 196 180 229 275 303 280 258 217 231 300 273 239 249 258 257 254 259 250 241 248 247 242 244
244 217 207 183 176 170 165 163 162 166 174 181 192 195 192 176 157 173 175 163 161 167 168 168 169 168 173 166 162 171 171 162 163 163 161 179 197 187 188 191 188 191 187 149 159 188 142 127 250 263 173 143 97 165 186 197 171 83 141 173 165 169 184 173 169 171 172 214 249 297 317 262 219 201 196 230 240 242 252 263 258 246 239 235 243 246 245 241
205 194 187 169 169 165 160 159 162 176 181 184 189 185 166 150 162 179 190 176 167 173 173 169 164 160 174 172 161 174 178 161 165 169 167 178 180 187 193 192 182 182 174 138 150 162 142 134 148 225 347 153 179 217 194 174 162 148 155 178 189 145 145 169 174 152 149 182 210 266 282 259 239 190 186 208 232 242 245 251 252 252 251 246 251 264 270 255
164 195 174 161 162 158 155 157 171 175 177 188 189 181 159 159 160 171 194 193 174 184 179 167 165 164 164 166 169 178 168 156 168 170 162 178 179 192 197 189 172 163 157 133 150 167 166 139 140 144 154 182 227 268 195 168 173 176 177 185 180 149 122 161 221 211 115 166 185 184 268 268 248 194 195 197 212 235 243 235 240 259 264 263 278 286 264 248
161 199 159 158 158 155 153 164 172 169 185 186 180 171 153 158 157 169 187 195 179 183 178 166 167 165 162 166 169 168 163 162 172 175 180 189 190 198 197 181 162 157 164 162 162 167 116 104 121 138 185 207 265 317 325 221 170 161 196 198 171 166 163 176 216 211 98 222 175 117 268 274 255 197 211 216 222 247 266 216 238 269 272 268 284 281 257 243
162 154 152 157 157 155 157 173 165 170 182 171 171 170 149 156 168 173 180 187 186 174 162 168 167 164 166 166 161 161 163 164 179 185 185 190 194 199 180 164 153 159 170 160 154 164 129 118 114 79 315 305 335 356 352 335 115 169 231 205 166 187 189 170 188 162 148 226 187 118 262 270 286 287 257 268 281 301 299 251 248 279 293 294 289 282 256 220
139 124 148 158 159 159 165 174 168 170 161 154 182 180 156 162 175 175 179 184 187 168 160 166 166 166 167 160 158 164 165 161 192 196 184 181 196 178 156 159 155 165 180 174 169 171 151 144 130 115 103 9 348 329 302 263 208 197 225 168 150 153 126 118 119 115 197 221 167 166 248 256 282 326 311 296 301 292 274 252 233 254 286 311 312 295 252 206
134 129 123 157 162 162 168 171 164 169 164 158 181 178 172 193 177 177 180 183 190 175 163 163 166 162 157 155 160 170 171 162 178 185 161 140 190 116 159 163 163 174 179 145 142 138 129 160 156 153 165 178 193 207 207 197 188 203 107 123 153 149 138 156 139 133 226 222 148 184 240 259 301 328 311 303 302 282 273 276 269 251 257 282 288 279 248 211
142 149 138 138 166 164 161 144 154 173 171 159 169 176 175 173 171 181 181 183 198 187 166 164 165 157 156 159 158 169 178 151 135 167 158 151 166 236 171 166 167 174 154 129 138 134 117 171 176 177 189 195 191 180 143 128 131 168 141 123 148 150 143 141 121 174 213 156 153 225 236 254 275 288 298 300 282 267 277 309 307 274 252 257 258 262 261 239
144 154 156 142 140 166 164 131 152 173 171 166 168 168 169 165 166 184 188 191 194 178 160 165 165 160 161 160 155 166 169 90 106 163 162 155 143 98 163 170 169 166 149 144 155 140 117 188 189 187 201 200 171 159 150 137 151 170 154 150 164 157 151 149 178 214 186 115 245 239 220 234 245 235 262 276 264 262 271 272 271 265 250 247 243 262 277 260
152 158 168 156 148 167 173 148 142 153 166 172 171 161 168 169 171 183 189 201 186 170 159 161 170 169 164 161 157 159 155 124 143 164 158 153 137 119 148 183 184 170 156 160 174 151 148 203 195 185 199 189 145 161 164 150 160 169 164 172 172 167 177 183 208 222 194 191 243 234 200 229 236 201 227 245 233 238 250 247 252 269 267 252 228 231 242 241
143 91 145 152 150 165 166 147 135 146 166 169 165 172 174 171 178 187 180 167 186 184 172 162 170 171 165 164 161 158 164 166 167 176 174 165 157 147 153 181 208 187 166 166 186 173 168 197 187 176 183 171 148 166 164 149 144 161 178 183 172 176 190 193 215 226 213 216 235 224 169 245 241 194 220 238 220 224 260 290 272 249 253 247 232 226 227 233
154 145 144 122 126 160 163 150 141 152 168 165 163 178 177 174 180 187 186 176 174 182 178 164 164 165 167 172 169 169 179 179 176 181 178 166 165 170 172 174 181 182 173 170 182 198 198 190 167 156 162 173 161 134 133 144 147 161 187 188 178 186 197 205 219 225 218 225 236 250 331 276 257 215 226 259 279 249 274 284 263 241 237 231 234 239 236 238
81 108 146 144 144 158 162 157 153 158 169 181 172 166 172 179 178 174 195 205 180 171 169 162 161 164 171 177 178 180 187 188 186 184 175 166 167 170 172 167 159 161 171 174 168 181 195 180 134 141 169 208 191 121 108 104 107 125 187 193 191 195 202 213 222 218 214 225 233 250 265 255 238 233 235 271 272 244 245 252 249 249 235 214 223 236 235 238
50 71 118 132 133 155 164 161 163 166 169 179 173 161 166 179 179 170 178 216 202 185 174 166 165 165 171 184 190 191 191 187 178 165 154 143 127 110 104 126 148 156 160 155 130 133 155 145 130 163 178 235 289 132 119 98 99 200 223 203 199 204 210 222 234 225 217 215 213 230 238 201 179 204 216 231 235 230 236 232 223 236 232 215 223 230 229 236